When you browse on this site, cookies collect data to enhance your experience and personalize the content and advertising you see.
Visit our Privacy Policy to learn more. By continuing to use the site, you agree to this use of cookies and data.
  • en Belgique
  • Liste des pays
  • À 7 jours
  • Température de l'eau
  • Carte satellitaire
  • Carte météo
  • Widgets météo
  • user-avatar
    Se connecter

    Météo par heure à Belgorod

    Ce jour, 21 Janvier, Lundi

    Heure Température Précipitation Vent Pression Humidité
    00:00 -8°C° 0.2 mm 2 m/s 748 mmHg 95%
    01:00 -8°C° 0.2 mm 2 m/s 748 mmHg 96%
    02:00 -7°C° 0 mm 2 m/s 747 mmHg 97%
    03:00 -7°C° 0.4 mm 2 m/s 746 mmHg 97%
    04:00 -6°C° 0.4 mm 1 m/s 746 mmHg 97%
    05:00 -6°C° 0.4 mm 1 m/s 745 mmHg 98%
    06:00 -6°C° 0.5 mm 1 m/s 745 mmHg 98%
    07:00 -6°C° 0.5 mm 1 m/s 745 mmHg 97%
    08:00 -6°C° 0 mm 0 m/s 745 mmHg 97%
    09:00 -4°C° 0.1 mm 1 m/s 745 mmHg 96%
    10:00 -6°C° 0.1 mm 2 m/s 745 mmHg 95%
    11:00 -7°C° 0.1 mm 3 m/s 744 mmHg 94%
    12:00 -8°C° 0 mm 4 m/s 745 mmHg 93%
    13:00 -8°C° 0 mm 4 m/s 745 mmHg 92%
    14:00 -8°C° 0 mm 4 m/s 745 mmHg 91%
    15:00 -9°C° 0 mm 4 m/s 745 mmHg 91%
    16:00 -9°C° 0 mm 4 m/s 746 mmHg 90%
    17:00 -10°C° 0 mm 4 m/s 746 mmHg 89%
    18:00 -10°C° 0 mm 4 m/s 747 mmHg 90%
    19:00 -9°C° 0 mm 3 m/s 747 mmHg 90%
    20:00 -9°C° 0 mm 3 m/s 747 mmHg 90%
    21:00 -10°C° 0 mm 3 m/s 748 mmHg 91%
    22:00 -10°C° 0 mm 3 m/s 748 mmHg 91%
    23:00 -12°C° 0 mm 3 m/s 748 mmHg 92%

    Demain, 22 Janvier, Mardi

    Heure Température Précipitation Vent Pression Humidité
    00:00 -13°C° 0 mm 3 m/s 748 mmHg 93%
    01:00 -14°C° 0 mm 3 m/s 749 mmHg 95%
    02:00 -15°C° 0 mm 3 m/s 749 mmHg 96%
    03:00 -14°C° 0 mm 2 m/s 749 mmHg 96%
    04:00 -14°C° 0 mm 2 m/s 749 mmHg 97%
    05:00 -14°C° 0 mm 2 m/s 749 mmHg 97%
    06:00 -14°C° 0 mm 2 m/s 750 mmHg 97%
    07:00 -14°C° 0 mm 2 m/s 750 mmHg 97%
    08:00 -13°C° 0 mm 2 m/s 750 mmHg 97%
    09:00 -13°C° 0 mm 2 m/s 750 mmHg 96%
    10:00 -12°C° 0 mm 2 m/s 751 mmHg 95%
    11:00 -12°C° 0 mm 3 m/s 751 mmHg 94%
    12:00 -9°C° 0 mm 2 m/s 751 mmHg 93%
    13:00 -9°C° 0 mm 2 m/s 751 mmHg 93%
    14:00 -8°C° 0 mm 2 m/s 751 mmHg 92%
    15:00 -9°C° 0 mm 2 m/s 751 mmHg 93%
    16:00 -8°C° 0 mm 1 m/s 751 mmHg 93%
    17:00 -9°C° 0 mm 1 m/s 751 mmHg 94%
    18:00 -9°C° 0 mm 1 m/s 751 mmHg 95%
    19:00 -10°C° 0 mm 1 m/s 751 mmHg 95%
    20:00 -10°C° 0 mm 1 m/s 751 mmHg 95%
    21:00 -10°C° 0 mm 1 m/s 751 mmHg 95%
    22:00 -11°C° 0 mm 1 m/s 751 mmHg 95%
    23:00 -11°C° 0 mm 1 m/s 751 mmHg 96%

    Après-demain, 23 Janvier, Mercredi

    Heure Température Précipitation Vent Pression Humidité
    00:00 -14°C° 0 mm 2 m/s 751 mmHg 96%
    01:00 -14°C° 0 mm 2 m/s 751 mmHg 97%
    02:00 -15°C° 0 mm 2 m/s 751 mmHg 97%
    03:00 -15°C° 0 mm 2 m/s 751 mmHg 97%
    04:00 -16°C° 0 mm 3 m/s 750 mmHg 97%
    05:00 -16°C° 0 mm 3 m/s 750 mmHg 97%
    06:00 -15°C° 0 mm 3 m/s 750 mmHg 97%
    07:00 -16°C° 0 mm 4 m/s 750 mmHg 97%
    08:00 -16°C° 0 mm 4 m/s 750 mmHg 96%
    09:00 -16°C° 0 mm 4 m/s 750 mmHg 95%
    10:00 -15°C° 0 mm 5 m/s 750 mmHg 94%
    11:00 -14°C° 0 mm 5 m/s 750 mmHg 93%
    12:00 -14°C° 0 mm 5 m/s 749 mmHg 91%
    13:00 -13°C° 0 mm 5 m/s 748 mmHg 90%
    14:00 -14°C° 0 mm 6 m/s 748 mmHg 88%
    15:00 -14°C° 0.1 mm 6 m/s 747 mmHg 89%
    16:00 -14°C° 0.1 mm 7 m/s 747 mmHg 90%
    17:00 -14°C° 0.1 mm 7 m/s 746 mmHg 91%
    18:00 -14°C° 0.5 mm 7 m/s 745 mmHg 92%
    19:00 -13°C° 0.5 mm 7 m/s 745 mmHg 93%
    20:00 -13°C° 0.5 mm 8 m/s 744 mmHg 94%
    21:00 -12°C° 1.5 mm 8 m/s 744 mmHg 94%
    22:00 -11°C° 1.5 mm 8 m/s 743 mmHg 95%
    23:00 -11°C° 1.5 mm 8 m/s 742 mmHg 95%

    24 Janvier, Jeudi

    Heure Température Précipitation Vent Pression Humidité
    00:00 -8°C° 0.6 mm 8 m/s 742 mmHg 94%
    01:00 -7°C° 0.6 mm 7 m/s 741 mmHg 94%
    02:00 -4°C° 0.6 mm 7 m/s 740 mmHg 93%
    03:00 -3°C° 0.2 mm 6 m/s 740 mmHg 95%
    04:00 -3°C° 0.2 mm 6 m/s 740 mmHg 97%
    05:00 -1°C° 0.2 mm 5 m/s 739 mmHg 99%
    06:00 -1°C° 0.1 mm 5 m/s 740 mmHg 99%
    07:00 -1°C° 0.1 mm 5 m/s 740 mmHg 99%
    08:00 -1°C° 0.1 mm 4 m/s 740 mmHg 99%
    09:00 -1°C° 0 mm 4 m/s 741 mmHg 99%
    10:00 0°C° 0 mm 3 m/s 741 mmHg 99%
    11:00 0°C° 0 mm 3 m/s 741 mmHg 99%
    12:00 +1°C° 0 mm 2 m/s 741 mmHg 100%
    13:00 +1°C° 0 mm 2 m/s 741 mmHg 100%
    14:00 +1°C° 0 mm 2 m/s 741 mmHg 100%
    15:00 +2°C° 0 mm 1 m/s 742 mmHg 99%
    16:00 0°C° 0 mm 0 m/s 742 mmHg 98%
    17:00 0°C° 0 mm 0 m/s 742 mmHg 97%
    18:00 +1°C° 0.4 mm 1 m/s 742 mmHg 97%
    19:00 +1°C° 0.4 mm 1 m/s 742 mmHg 97%
    20:00 -1°C° 0.4 mm 2 m/s 743 mmHg 97%
    21:00 -1°C° 0.3 mm 2 m/s 743 mmHg 98%
    22:00 +1°C° 0.3 mm 2 m/s 743 mmHg 98%
    23:00 +1°C° 0.3 mm 2 m/s 743 mmHg 99%

    25 Janvier, Vendredi

    Heure Température Précipitation Vent Pression Humidité
    00:00 +1°C° 1 mm 2 m/s 742 mmHg 99%
    01:00 +1°C° 1 mm 2 m/s 742 mmHg 99%
    02:00 +1°C° 1 mm 2 m/s 742 mmHg 99%
    03:00 0°C° 0.3 mm 3 m/s 742 mmHg 99%
    04:00 0°C° 0.3 mm 3 m/s 742 mmHg 98%
    05:00 0°C° 0.3 mm 3 m/s 741 mmHg 98%
    06:00 -1°C° 0.2 mm 3 m/s 741 mmHg 97%
    07:00 -1°C° 0.2 mm 3 m/s 741 mmHg 96%
    08:00 -1°C° 0.2 mm 2 m/s 741 mmHg 95%
    09:00 -1°C° 0 mm 3 m/s 741 mmHg 97%
    10:00 -1°C° 0 mm 3 m/s 741 mmHg 98%
    11:00 0°C° 0 mm 3 m/s 740 mmHg 99%
    12:00 -1°C° 0 mm 3 m/s 740 mmHg 99%
    13:00 -1°C° 0 mm 2 m/s 740 mmHg 99%
    14:00 -1°C° 0 mm 2 m/s 740 mmHg 100%
    15:00 -1°C° 0 mm 2 m/s 740 mmHg 99%
    16:00 -1°C° 0 mm 2 m/s 740 mmHg 98%
    17:00 -1°C° 0 mm 3 m/s 740 mmHg 97%
    18:00 -2°C° 0 mm 3 m/s 741 mmHg 96%
    19:00 -4°C° 0 mm 3 m/s 741 mmHg 95%
    20:00 -5°C° 0 mm 4 m/s 741 mmHg 93%
    21:00 -6°C° 0 mm 3 m/s 741 mmHg 94%
    22:00 -7°C° 0 mm 3 m/s 741 mmHg 94%
    23:00 -7°C° 0 mm 2 m/s 741 mmHg 95%

    26 Janvier, Samedi

    Heure Température Précipitation Vent Pression Humidité
    00:00 -8°C° 0 mm 2 m/s 741 mmHg 96%
    01:00 -9°C° 0 mm 2 m/s 741 mmHg 96%
    02:00 -9°C° 0 mm 2 m/s 741 mmHg 97%
    03:00 -9°C° 0 mm 2 m/s 741 mmHg 97%
    04:00 -10°C° 0 mm 3 m/s 741 mmHg 96%
    05:00 -10°C° 0 mm 3 m/s 741 mmHg 96%
    06:00 -9°C° 0 mm 2 m/s 741 mmHg 96%
    07:00 -9°C° 0 mm 2 m/s 741 mmHg 96%
    08:00 -9°C° 0 mm 2 m/s 742 mmHg 96%
    09:00 -9°C° 0 mm 2 m/s 742 mmHg 95%
    10:00 -8°C° 0 mm 2 m/s 741 mmHg 94%
    11:00 -7°C° 0 mm 1 m/s 741 mmHg 94%
    12:00 -8°C° 0 mm 2 m/s 741 mmHg 94%
    13:00 -7°C° 0 mm 2 m/s 741 mmHg 94%
    14:00 -7°C° 0 mm 2 m/s 740 mmHg 94%
    15:00 -8°C° 0 mm 2 m/s 740 mmHg 94%
    16:00 -8°C° 0 mm 2 m/s 741 mmHg 95%
    17:00 -8°C° 0 mm 2 m/s 741 mmHg 95%
    18:00 -9°C° 0 mm 2 m/s 741 mmHg 96%
    19:00 -9°C° 0 mm 2 m/s 741 mmHg 96%
    20:00 -12°C° 0 mm 3 m/s 741 mmHg 96%
    21:00 -12°C° 0 mm 2 m/s 741 mmHg 96%
    22:00 -13°C° 0 mm 2 m/s 741 mmHg 96%
    23:00 -13°C° 0 mm 2 m/s 741 mmHg 96%
    Voir plus